ARG1286 SABE-SCEL

Flight info

Callsign ARG1286
Flight time 1h 52m
Altitude 34000
Route PAL9 NEPIS DCT NIN UL405 TOSOR UT687 UMKAL UMKAL7C
Aircraft B738/M-SDE2E3FGHIRWXY/LB1

Departure

Time 2026-04-30 05:30
Airport Aeroparque Jorge Newbery (SABE)

Arrival

Time 2026-04-30 07:23
Airport Comodoro Arturo Merino Benítez International Airport (SCEL)
Time Latitude Longitude Altitude Speed Heading
2026-04-30 04:56 -34.55688 -58.41484 26 ft 0 kts 13°
2026-04-30 05:20 -34.55691 -58.41484 32 ft 1 kts 14°
2026-04-30 05:20 -34.55698 -58.41487 32 ft 1 kts 15°
2026-04-30 05:20 -34.55704 -58.41489 32 ft 1 kts 16°
2026-04-30 05:20 -34.55711 -58.41491 28 ft 1 kts 14°
2026-04-30 05:21 -34.55718 -58.41493 32 ft 1 kts
2026-04-30 05:21 -34.55723 -58.41493 32 ft 1 kts 336°
2026-04-30 05:21 -34.55727 -58.41491 32 ft 1 kts 316°
2026-04-30 05:21 -34.55729 -58.41488 32 ft 0 kts 308°
2026-04-30 05:22 -34.55731 -58.41485 30 ft 0 kts 304°
2026-04-30 05:22 -34.55733 -58.41482 26 ft 0 kts 302°
2026-04-30 05:22 -34.55735 -58.41478 32 ft 0 kts 300°
2026-04-30 05:22 -34.55735 -58.41477 32 ft 0 kts 299°
2026-04-30 05:24 -34.55734 -58.41481 26 ft 1 kts 300°
2026-04-30 05:24 -34.55729 -58.41491 29 ft 3 kts 298°
2026-04-30 05:24 -34.55729 -58.41542 26 ft 8 kts 246°
2026-04-30 05:25 -34.55774 -58.41589 30 ft 8 kts 225°
2026-04-30 05:25 -34.55773 -58.41656 29 ft 8 kts 293°
2026-04-30 05:25 -34.55749 -58.41719 25 ft 8 kts 296°
2026-04-30 05:25 -34.55723 -58.41777 27 ft 8 kts 304°
2026-04-30 05:26 -34.55693 -58.41831 25 ft 8 kts 304°
2026-04-30 05:26 -34.55664 -58.41883 28 ft 7 kts 304°
2026-04-30 05:26 -34.55631 -58.41942 30 ft 10 kts 304°
2026-04-30 05:26 -34.55593 -58.42010 31 ft 10 kts 304°
2026-04-30 05:27 -34.55555 -58.42075 27 ft 9 kts 306°
2026-04-30 05:27 -34.55523 -58.42128 29 ft 9 kts 306°
2026-04-30 05:27 -34.55486 -58.42189 29 ft 9 kts 306°
2026-04-30 05:27 -34.55449 -58.42248 28 ft 9 kts 308°
2026-04-30 05:28 -34.55413 -58.42305 28 ft 8 kts 308°
2026-04-30 05:28 -34.55379 -58.42360 27 ft 8 kts 301°
2026-04-30 05:28 -34.55362 -58.42424 26 ft 8 kts 279°
2026-04-30 05:28 -34.55369 -58.42487 26 ft 8 kts 237°
2026-04-30 05:29 -34.55414 -58.42489 27 ft 7 kts 133°
2026-04-30 05:29 -34.55418 -58.42480 28 ft 0 kts 116°
2026-04-30 05:29 -34.55434 -58.42449 27 ft 12 kts 123°
2026-04-30 05:29 -34.55625 -58.42113 26 ft 87 kts 124°
2026-04-30 05:30 -34.56094 -58.41269 29 ft 154 kts 124°
2026-04-30 05:30 -34.56780 -58.40039 323 ft 185 kts 123°
2026-04-30 05:30 -34.57500 -58.38727 1100 ft 192 kts 122°
2026-04-30 05:30 -34.58253 -58.37318 1737 ft 206 kts 122°
2026-04-30 05:31 -34.59073 -58.35814 2375 ft 217 kts 123°
2026-04-30 05:31 -34.59903 -58.34288 3217 ft 214 kts 123°
2026-04-30 05:31 -34.60733 -58.32793 3941 ft 219 kts 133°
2026-04-30 05:31 -34.62032 -58.31738 4139 ft 235 kts 168°
2026-04-30 05:32 -34.63673 -58.31695 4418 ft 241 kts 201°
2026-04-30 05:32 -34.65069 -58.32742 4922 ft 233 kts 233°
2026-04-30 05:32 -34.65758 -58.34483 5026 ft 231 kts 266°
2026-04-30 05:32 -34.65706 -58.36404 5332 ft 226 kts 276°
2026-04-30 05:33 -34.65527 -58.38329 5900 ft 231 kts 277°
2026-04-30 05:33 -34.65331 -58.40269 6558 ft 232 kts 276°
2026-04-30 05:33 -34.65132 -58.42220 7173 ft 234 kts 276°
2026-04-30 05:33 -34.64934 -58.44187 7773 ft 236 kts 276°
2026-04-30 05:34 -34.64732 -58.46202 8181 ft 251 kts 276°
2026-04-30 05:34 -34.64519 -58.48362 8692 ft 262 kts 276°
2026-04-30 05:34 -34.64300 -58.50571 9406 ft 265 kts 275°
2026-04-30 05:34 -34.64081 -58.52803 10163 ft 267 kts 275°
2026-04-30 05:35 -34.63858 -58.55075 10744 ft 275 kts 275°
2026-04-30 05:35 -34.63630 -58.57403 11425 ft 278 kts 275°
2026-04-30 05:35 -34.63401 -58.59736 12180 ft 279 kts 275°
2026-04-30 05:35 -34.63172 -58.62079 12916 ft 281 kts 275°
2026-04-30 05:36 -34.62940 -58.64444 13638 ft 283 kts 275°
2026-04-30 05:36 -34.62707 -58.66823 14308 ft 285 kts 275°
2026-04-30 05:36 -34.62472 -58.69214 14985 ft 285 kts 275°
2026-04-30 05:36 -34.62236 -58.71614 15674 ft 287 kts 275°
2026-04-30 05:37 -34.61999 -58.74020 16330 ft 288 kts 274°
2026-04-30 05:37 -34.61761 -58.76444 16984 ft 290 kts 274°
2026-04-30 05:37 -34.61520 -58.78878 17623 ft 292 kts 274°
2026-04-30 05:37 -34.61278 -58.81330 18274 ft 294 kts 274°
2026-04-30 05:38 -34.61033 -58.83799 18820 ft 296 kts 274°
2026-04-30 05:38 -34.60786 -58.86286 19359 ft 297 kts 274°
2026-04-30 05:38 -34.60537 -58.88782 19909 ft 299 kts 274°
2026-04-30 05:38 -34.60286 -58.91302 20428 ft 302 kts 274°
2026-04-30 05:39 -34.60033 -58.93837 20940 ft 304 kts 274°
2026-04-30 05:39 -34.59777 -58.96395 21473 ft 307 kts 274°
2026-04-30 05:39 -34.59518 -58.98976 21964 ft 309 kts 274°
2026-04-30 05:39 -34.59256 -59.01577 22468 ft 312 kts 274°
2026-04-30 05:40 -34.58992 -59.04194 22953 ft 314 kts 274°
2026-04-30 05:40 -34.58725 -59.06841 23457 ft 317 kts 274°
2026-04-30 05:40 -34.58456 -59.09497 23889 ft 319 kts 274°
2026-04-30 05:40 -34.58183 -59.12176 24325 ft 320 kts 274°
2026-04-30 05:41 -34.57909 -59.14867 24745 ft 322 kts 274°
2026-04-30 05:41 -34.57634 -59.17564 25174 ft 323 kts 274°
2026-04-30 05:41 -34.57361 -59.20239 25574 ft 325 kts 274°
2026-04-30 05:41 -34.57082 -59.22960 25969 ft 327 kts 274°
2026-04-30 05:42 -34.56800 -59.25709 26362 ft 328 kts 274°
2026-04-30 05:42 -34.56517 -59.28460 26776 ft 329 kts 274°
2026-04-30 05:42 -34.56232 -59.31220 27170 ft 331 kts 274°
2026-04-30 05:42 -34.55945 -59.33998 27547 ft 333 kts 274°
2026-04-30 05:43 -34.55656 -59.36788 27915 ft 334 kts 274°
2026-04-30 05:43 -34.55365 -59.39589 28303 ft 335 kts 274°
2026-04-30 05:43 -34.55073 -59.42400 28683 ft 337 kts 274°
2026-04-30 05:43 -34.54779 -59.45223 29035 ft 339 kts 274°
2026-04-30 05:44 -34.54481 -59.48069 29388 ft 340 kts 274°
2026-04-30 05:44 -34.54183 -59.50915 29757 ft 341 kts 274°
2026-04-30 05:44 -34.53882 -59.53776 30096 ft 343 kts 274°
2026-04-30 05:44 -34.53580 -59.56649 30378 ft 344 kts 274°
2026-04-30 05:45 -34.53276 -59.59529 30658 ft 345 kts 274°
2026-04-30 05:45 -34.52971 -59.62418 30951 ft 346 kts 274°
2026-04-30 05:45 -34.52663 -59.65321 31219 ft 347 kts 274°
2026-04-30 05:45 -34.52354 -59.68227 31482 ft 349 kts 274°
2026-04-30 05:46 -34.52043 -59.71150 31728 ft 350 kts 274°
2026-04-30 05:46 -34.51730 -59.74084 31989 ft 351 kts 274°
2026-04-30 05:46 -34.51416 -59.77020 32263 ft 352 kts 274°
2026-04-30 05:46 -34.51100 -59.79963 32532 ft 352 kts 274°
2026-04-30 05:47 -34.50784 -59.82908 32763 ft 354 kts 274°
2026-04-30 05:47 -34.50465 -59.85871 32995 ft 355 kts 274°
2026-04-30 05:47 -34.50144 -59.88840 33219 ft 356 kts 274°
2026-04-30 05:47 -34.49930 -59.90817 33365 ft 357 kts 274°
2026-04-30 05:48 -34.49497 -59.94819 33640 ft 359 kts 274°
2026-04-30 05:48 -34.49281 -59.96799 33782 ft 359 kts 274°
2026-04-30 05:48 -34.48954 -59.99804 33988 ft 360 kts 274°
2026-04-30 05:48 -34.48624 -60.02831 34008 ft 364 kts 274°
2026-04-30 05:49 -34.47952 -60.08985 34032 ft 372 kts 274°
2026-04-30 05:49 -34.47261 -60.15272 34033 ft 381 kts 274°
2026-04-30 05:50 -34.46550 -60.21701 34030 ft 388 kts 275°
2026-04-30 05:50 -34.45829 -60.28176 34027 ft 390 kts 275°
2026-04-30 05:51 -34.45099 -60.34700 34023 ft 391 kts 275°
2026-04-30 05:51 -34.44366 -60.41227 34025 ft 391 kts 275°
2026-04-30 05:52 -34.43630 -60.47749 34020 ft 390 kts 275°
2026-04-30 05:52 -34.42893 -60.54244 34022 ft 388 kts 275°
2026-04-30 05:53 -34.42157 -60.60704 34019 ft 386 kts 275°
2026-04-30 05:53 -34.41422 -60.67132 34020 ft 384 kts 275°
2026-04-30 05:54 -34.40687 -60.73530 34023 ft 383 kts 275°
2026-04-30 05:54 -34.39950 -60.79903 34026 ft 382 kts 275°
2026-04-30 05:55 -34.39213 -60.86262 34022 ft 381 kts 275°
2026-04-30 05:55 -34.38473 -60.92612 34021 ft 381 kts 275°
2026-04-30 05:56 -34.37730 -60.98957 34025 ft 381 kts 275°
2026-04-30 05:56 -34.36982 -61.05314 34023 ft 382 kts 275°
2026-04-30 05:57 -34.36229 -61.11685 34026 ft 383 kts 275°
2026-04-30 05:57 -34.35472 -61.18064 34027 ft 383 kts 275°
2026-04-30 05:58 -34.34710 -61.24457 34022 ft 384 kts 276°
2026-04-30 05:58 -34.33943 -61.30856 34022 ft 385 kts 276°
2026-04-30 05:59 -34.33171 -61.37265 34021 ft 385 kts 276°
2026-04-30 05:59 -34.32397 -61.43671 34024 ft 385 kts 276°
2026-04-30 06:00 -34.31623 -61.50041 34024 ft 385 kts 276°
2026-04-30 06:00 -34.30837 -61.56485 34017 ft 385 kts 276°
2026-04-30 06:01 -34.30059 -61.62837 34019 ft 384 kts 276°
2026-04-30 06:01 -34.29274 -61.69217 34016 ft 384 kts 276°
2026-04-30 06:02 -34.28485 -61.75594 34017 ft 383 kts 276°
2026-04-30 06:02 -34.27695 -61.81957 34014 ft 382 kts 276°
2026-04-30 06:03 -34.26903 -61.88310 34010 ft 382 kts 276°
2026-04-30 06:03 -34.26109 -61.94649 34012 ft 381 kts 276°
2026-04-30 06:04 -34.25314 -62.00975 34018 ft 381 kts 276°
2026-04-30 06:05 -34.24113 -62.10471 34015 ft 381 kts 276°
2026-04-30 06:05 -34.23309 -62.16800 34014 ft 381 kts 276°
2026-04-30 06:06 -34.22501 -62.23131 34009 ft 381 kts 277°
2026-04-30 06:06 -34.21690 -62.29460 34005 ft 382 kts 277°
2026-04-30 06:07 -34.20874 -62.35798 34009 ft 382 kts 277°
2026-04-30 06:07 -34.20054 -62.42138 34010 ft 382 kts 277°
2026-04-30 06:08 -34.19230 -62.48486 34008 ft 383 kts 277°
2026-04-30 06:08 -34.18403 -62.54836 34006 ft 383 kts 277°
2026-04-30 06:09 -34.17571 -62.61188 34004 ft 383 kts 277°
2026-04-30 06:09 -34.16735 -62.67550 34003 ft 383 kts 277°
2026-04-30 06:10 -34.15896 -62.73907 34003 ft 384 kts 277°
2026-04-30 06:10 -34.15053 -62.80268 34003 ft 384 kts 277°
2026-04-30 06:11 -34.14208 -62.86621 33998 ft 384 kts 277°
2026-04-30 06:11 -34.13358 -62.92983 33999 ft 384 kts 277°
2026-04-30 06:12 -34.12506 -62.99338 33999 ft 384 kts 277°
2026-04-30 06:12 -34.11650 -63.05690 34000 ft 384 kts 277°
2026-04-30 06:13 -34.10797 -63.11998 33999 ft 383 kts 278°
2026-04-30 06:13 -34.09935 -63.18351 33996 ft 383 kts 278°
2026-04-30 06:14 -34.09070 -63.24694 33998 ft 383 kts 278°
2026-04-30 06:14 -34.08203 -63.31036 33999 ft 383 kts 278°
2026-04-30 06:15 -34.07331 -63.37378 33993 ft 383 kts 278°
2026-04-30 06:15 -34.06457 -63.43717 33992 ft 383 kts 278°
2026-04-30 06:16 -34.05579 -63.50054 33996 ft 383 kts 278°
2026-04-30 06:16 -34.04699 -63.56390 33994 ft 383 kts 278°
2026-04-30 06:17 -34.03815 -63.62725 33993 ft 383 kts 278°
2026-04-30 06:17 -34.02927 -63.69060 33994 ft 383 kts 278°
2026-04-30 06:18 -34.02035 -63.75406 33997 ft 387 kts 278°
2026-04-30 06:18 -34.01124 -63.81863 33998 ft 394 kts 278°
2026-04-30 06:19 -34.00194 -63.88423 33991 ft 399 kts 279°
2026-04-30 06:19 -33.99255 -63.95018 33988 ft 400 kts 279°
2026-04-30 06:20 -33.98311 -64.01624 33983 ft 400 kts 279°
2026-04-30 06:20 -33.97363 -64.08233 33987 ft 400 kts 279°
2026-04-30 06:21 -33.96414 -64.14827 33985 ft 399 kts 279°
2026-04-30 06:21 -33.95463 -64.21406 33980 ft 399 kts 279°
2026-04-30 06:22 -33.94510 -64.27976 33982 ft 398 kts 279°
2026-04-30 06:22 -33.93554 -64.34534 33984 ft 397 kts 279°
2026-04-30 06:23 -33.92596 -64.41091 33984 ft 397 kts 279°
2026-04-30 06:23 -33.91642 -64.47595 33976 ft 397 kts 279°
2026-04-30 06:24 -33.90644 -64.54177 33977 ft 397 kts 280°
2026-04-30 06:24 -33.89575 -64.60655 33978 ft 397 kts 281°
2026-04-30 06:25 -33.88481 -64.67220 33981 ft 397 kts 281°
2026-04-30 06:25 -33.87398 -64.73739 33975 ft 397 kts 281°
2026-04-30 06:26 -33.86315 -64.80262 33976 ft 398 kts 281°
2026-04-30 06:26 -33.85238 -64.86746 33975 ft 398 kts 281°
2026-04-30 06:27 -33.84150 -64.93272 33974 ft 398 kts 281°
2026-04-30 06:27 -33.83057 -64.99804 33979 ft 399 kts 281°
2026-04-30 06:28 -33.81960 -65.06342 33982 ft 399 kts 281°
2026-04-30 06:28 -33.80859 -65.12883 33987 ft 399 kts 281°
2026-04-30 06:29 -33.79753 -65.19427 33988 ft 400 kts 281°
2026-04-30 06:29 -33.78642 -65.25977 33992 ft 400 kts 281°
2026-04-30 06:30 -33.77528 -65.32528 33992 ft 400 kts 281°
2026-04-30 06:30 -33.76408 -65.39084 33994 ft 400 kts 281°
2026-04-30 06:31 -33.75286 -65.45636 33995 ft 400 kts 282°
2026-04-30 06:31 -33.74161 -65.52187 33991 ft 401 kts 282°
2026-04-30 06:32 -33.73030 -65.58747 33990 ft 401 kts 282°
2026-04-30 06:32 -33.71895 -65.65302 33984 ft 401 kts 282°
2026-04-30 06:33 -33.70756 -65.71865 33983 ft 401 kts 282°
2026-04-30 06:33 -33.69614 -65.78426 33977 ft 401 kts 282°
2026-04-30 06:34 -33.68663 -65.83869 33973 ft 401 kts 282°
2026-04-30 06:34 -33.67513 -65.90432 33974 ft 401 kts 282°
2026-04-30 06:35 -33.66173 -65.98053 33971 ft 402 kts 282°
2026-04-30 06:35 -33.65016 -66.04613 33965 ft 402 kts 282°
2026-04-30 06:36 -33.64043 -66.10110 33966 ft 402 kts 282°
2026-04-30 06:36 -33.62879 -66.16670 33962 ft 402 kts 282°
2026-04-30 06:37 -33.61710 -66.23233 33957 ft 402 kts 282°
2026-04-30 06:37 -33.60537 -66.29799 33963 ft 402 kts 282°
2026-04-30 06:38 -33.59361 -66.36358 33960 ft 403 kts 282°
2026-04-30 06:38 -33.58181 -66.42922 33960 ft 403 kts 282°
2026-04-30 06:39 -33.56996 -66.49490 33955 ft 403 kts 282°
2026-04-30 06:39 -33.55809 -66.56051 33947 ft 403 kts 282°
2026-04-30 06:40 -33.54619 -66.62606 33942 ft 402 kts 283°
2026-04-30 06:40 -33.53426 -66.69157 33939 ft 402 kts 283°
2026-04-30 06:41 -33.52230 -66.75703 33934 ft 402 kts 283°
2026-04-30 06:41 -33.51039 -66.82205 33936 ft 402 kts 283°
2026-04-30 06:42 -33.49829 -66.88785 33933 ft 402 kts 283°
2026-04-30 06:42 -33.48631 -66.95282 33932 ft 402 kts 283°
2026-04-30 06:43 -33.47420 -67.01825 33928 ft 403 kts 283°
2026-04-30 06:43 -33.46204 -67.08382 33931 ft 403 kts 283°
2026-04-30 06:44 -33.44982 -67.14942 33929 ft 404 kts 283°
2026-04-30 06:44 -33.43755 -67.21515 33928 ft 405 kts 283°
2026-04-30 06:45 -33.42523 -67.28092 33926 ft 405 kts 283°
2026-04-30 06:45 -33.41286 -67.34678 33922 ft 406 kts 283°
2026-04-30 06:46 -33.40045 -67.41264 33931 ft 406 kts 283°
2026-04-30 06:46 -33.38797 -67.47863 33919 ft 407 kts 283°
2026-04-30 06:47 -33.37545 -67.54466 33929 ft 407 kts 283°
2026-04-30 06:47 -33.36288 -67.61076 33919 ft 408 kts 283°
2026-04-30 06:48 -33.35026 -67.67693 33927 ft 408 kts 283°
2026-04-30 06:48 -33.33761 -67.74312 33923 ft 409 kts 284°
2026-04-30 06:49 -33.32489 -67.80940 33918 ft 409 kts 284°
2026-04-30 06:49 -33.31213 -67.87574 33919 ft 409 kts 284°
2026-04-30 06:50 -33.29936 -67.94208 33921 ft 410 kts 284°
2026-04-30 06:50 -33.28661 -68.00808 33916 ft 410 kts 284°
2026-04-30 06:51 -33.27375 -68.07451 33923 ft 411 kts 284°
2026-04-30 06:51 -33.26083 -68.14100 33918 ft 411 kts 284°
2026-04-30 06:52 -33.24786 -68.20756 33911 ft 412 kts 284°
2026-04-30 06:52 -33.23484 -68.27416 33925 ft 412 kts 284°
2026-04-30 06:53 -33.22178 -68.34079 33927 ft 412 kts 284°
2026-04-30 06:53 -33.20868 -68.40744 33928 ft 413 kts 284°
2026-04-30 06:54 -33.19551 -68.47419 33930 ft 413 kts 284°
2026-04-30 06:54 -33.18231 -68.54101 33933 ft 413 kts 284°
2026-04-30 06:55 -33.16903 -68.60789 33938 ft 414 kts 284°
2026-04-30 06:55 -33.15577 -68.67427 33940 ft 413 kts 285°
2026-04-30 06:56 -33.14270 -68.73956 33935 ft 399 kts 285°
2026-04-30 06:56 -33.12982 -68.80373 33947 ft 397 kts 285°
2026-04-30 06:57 -33.11708 -68.86695 33947 ft 397 kts 285°
2026-04-30 06:57 -33.10417 -68.93092 33942 ft 397 kts 285°
2026-04-30 06:58 -33.09118 -68.99506 33941 ft 398 kts 285°
2026-04-30 06:58 -33.07814 -69.05929 33939 ft 399 kts 285°
2026-04-30 06:59 -33.06503 -69.12371 33943 ft 400 kts 285°
2026-04-30 06:59 -33.05184 -69.18829 33930 ft 402 kts 285°
2026-04-30 07:00 -33.03872 -69.25245 33924 ft 393 kts 285°
2026-04-30 07:00 -33.02592 -69.31484 33932 ft 388 kts 286°
2026-04-30 07:00 -33.01937 -69.34664 33617 ft 393 kts 286°
2026-04-30 07:01 -33.01297 -69.37770 33159 ft 391 kts 285°
2026-04-30 07:01 -33.00650 -69.40904 32639 ft 389 kts 285°
2026-04-30 07:01 -33.00006 -69.44029 32026 ft 388 kts 285°
2026-04-30 07:01 -32.99363 -69.47137 31659 ft 385 kts 285°
2026-04-30 07:02 -32.98724 -69.50224 31187 ft 383 kts 285°
2026-04-30 07:02 -32.98087 -69.53287 30763 ft 378 kts 285°
2026-04-30 07:02 -32.97463 -69.56307 30414 ft 373 kts 285°
2026-04-30 07:02 -32.96840 -69.59305 29940 ft 372 kts 285°
2026-04-30 07:03 -32.96220 -69.62279 29513 ft 369 kts 284°
2026-04-30 07:03 -32.95605 -69.65228 29083 ft 365 kts 285°
2026-04-30 07:03 -32.94998 -69.68134 28683 ft 360 kts 285°
2026-04-30 07:03 -32.94395 -69.71016 28280 ft 357 kts 285°
2026-04-30 07:04 -32.93798 -69.73871 27891 ft 353 kts 285°
2026-04-30 07:04 -32.93208 -69.76693 27479 ft 351 kts 284°
2026-04-30 07:04 -32.92620 -69.79495 27061 ft 348 kts 284°
2026-04-30 07:04 -32.92035 -69.82281 26665 ft 345 kts 284°
2026-04-30 07:05 -32.90879 -69.87778 25877 ft 340 kts 284°
2026-04-30 07:05 -32.90306 -69.90497 25509 ft 337 kts 284°
2026-04-30 07:05 -32.89733 -69.93211 25109 ft 335 kts 284°
2026-04-30 07:06 -32.89167 -69.95892 24724 ft 333 kts 284°
2026-04-30 07:06 -32.88602 -69.98565 24281 ft 332 kts 284°
2026-04-30 07:06 -32.88106 -70.01238 23848 ft 332 kts 280°
2026-04-30 07:06 -32.87818 -70.03975 23343 ft 337 kts 277°
2026-04-30 07:07 -32.87594 -70.06765 22824 ft 339 kts 276°
2026-04-30 07:07 -32.87378 -70.09567 22296 ft 340 kts 276°
2026-04-30 07:07 -32.87152 -70.12366 21777 ft 340 kts 277°
2026-04-30 07:07 -32.86914 -70.15167 21305 ft 340 kts 277°
2026-04-30 07:08 -32.86667 -70.17962 20814 ft 340 kts 277°
2026-04-30 07:08 -32.86413 -70.20758 20313 ft 339 kts 277°
2026-04-30 07:08 -32.86159 -70.23550 19845 ft 340 kts 277°
2026-04-30 07:08 -32.85907 -70.26312 19372 ft 341 kts 277°
2026-04-30 07:09 -32.85648 -70.29131 18840 ft 343 kts 277°
2026-04-30 07:09 -32.85390 -70.31928 18350 ft 340 kts 277°
2026-04-30 07:09 -32.85131 -70.34720 17736 ft 339 kts 277°
2026-04-30 07:09 -32.84870 -70.37509 17088 ft 339 kts 277°
2026-04-30 07:10 -32.84610 -70.40294 16459 ft 338 kts 278°
2026-04-30 07:10 -32.84352 -70.43060 15910 ft 336 kts 278°
2026-04-30 07:10 -32.84095 -70.45815 15332 ft 336 kts 278°
2026-04-30 07:10 -32.83834 -70.48589 14736 ft 339 kts 279°
2026-04-30 07:11 -32.83570 -70.51391 14142 ft 343 kts 279°
2026-04-30 07:11 -32.83303 -70.54215 13625 ft 344 kts 279°
2026-04-30 07:11 -32.83038 -70.57011 13411 ft 332 kts 279°
2026-04-30 07:11 -32.82787 -70.59677 13207 ft 318 kts 279°
2026-04-30 07:12 -32.82541 -70.62271 12719 ft 315 kts 279°
2026-04-30 07:12 -32.82293 -70.64859 12185 ft 314 kts 279°
2026-04-30 07:12 -32.82089 -70.67414 11949 ft 306 kts 271°
2026-04-30 07:12 -32.82511 -70.69849 11786 ft 300 kts 251°
2026-04-30 07:13 -32.83593 -70.71939 11571 ft 297 kts 231°
2026-04-30 07:13 -32.85060 -70.73639 11310 ft 293 kts 226°
2026-04-30 07:13 -32.86574 -70.75266 10893 ft 293 kts 225°
2026-04-30 07:13 -32.88089 -70.76903 10481 ft 294 kts 226°
2026-04-30 07:14 -32.89583 -70.78535 10147 ft 291 kts 226°
2026-04-30 07:14 -32.91083 -70.80166 9725 ft 293 kts 222°
2026-04-30 07:14 -32.92906 -70.81270 9302 ft 298 kts 196°
2026-04-30 07:14 -32.94947 -70.81648 9008 ft 296 kts 188°
2026-04-30 07:15 -32.96975 -70.81918 8766 ft 290 kts 188°
2026-04-30 07:15 -32.98972 -70.82194 8304 ft 289 kts 188°
2026-04-30 07:15 -33.00958 -70.82431 7924 ft 283 kts 182°
2026-04-30 07:15 -33.02862 -70.82373 7819 ft 264 kts 177°
2026-04-30 07:16 -33.04631 -70.82247 7720 ft 247 kts 176°
2026-04-30 07:16 -33.06288 -70.82120 7606 ft 230 kts 177°
2026-04-30 07:16 -33.07836 -70.82012 7444 ft 217 kts 177°
2026-04-30 07:16 -33.09330 -70.81915 7138 ft 213 kts 177°
2026-04-30 07:17 -33.10802 -70.81823 6808 ft 211 kts 177°
2026-04-30 07:17 -33.12266 -70.81735 6496 ft 210 kts 177°
2026-04-30 07:17 -33.15144 -70.81567 5858 ft 204 kts 177°
2026-04-30 07:18 -33.16554 -70.81485 5491 ft 203 kts 177°
2026-04-30 07:18 -33.17932 -70.81409 5263 ft 194 kts 177°
2026-04-30 07:18 -33.19266 -70.81338 5018 ft 190 kts 177°
2026-04-30 07:18 -33.20559 -70.81269 4787 ft 188 kts 177°
2026-04-30 07:19 -33.21881 -70.81197 4541 ft 188 kts 177°
2026-04-30 07:19 -33.23181 -70.81127 4285 ft 186 kts 177°
2026-04-30 07:19 -33.24447 -70.81059 4053 ft 183 kts 177°
2026-04-30 07:19 -33.25724 -70.80990 3822 ft 180 kts 177°
2026-04-30 07:20 -33.26965 -70.80923 3584 ft 177 kts 177°
2026-04-30 07:20 -33.28162 -70.80859 3351 ft 170 kts 177°
2026-04-30 07:20 -33.29307 -70.80797 3183 ft 161 kts 177°
2026-04-30 07:20 -33.30428 -70.80736 2954 ft 159 kts 177°
2026-04-30 07:21 -33.31529 -70.80677 2704 ft 157 kts 178°
2026-04-30 07:21 -33.32603 -70.80619 2475 ft 156 kts 178°
2026-04-30 07:21 -33.33752 -70.80557 2278 ft 170 kts 177°
2026-04-30 07:21 -33.34923 -70.80494 2001 ft 166 kts 177°
2026-04-30 07:22 -33.37171 -70.80379 1605 ft 160 kts 178°
2026-04-30 07:22 -33.37891 -70.80339 1572 ft 145 kts 177°
2026-04-30 07:22 -33.38751 -70.80288 1574 ft 102 kts 176°
2026-04-30 07:23 -33.39313 -70.80259 1571 ft 60 kts 177°
2026-04-30 07:23 -33.39580 -70.80245 1570 ft 18 kts 178°
2026-04-30 07:23 -33.39647 -70.80242 1570 ft 10 kts 178°
2026-04-30 07:23 -33.39718 -70.80238 1571 ft 11 kts 178°
2026-04-30 07:24 -33.39799 -70.80234 1571 ft 13 kts 177°
2026-04-30 07:24 -33.39890 -70.80212 1572 ft 14 kts 153°
2026-04-30 07:24 -33.39970 -70.80157 1570 ft 13 kts 147°
2026-04-30 07:24 -33.40044 -70.80098 1568 ft 13 kts 144°
2026-04-30 07:25 -33.40115 -70.80036 1566 ft 12 kts 144°
2026-04-30 07:25 -33.40163 -70.79971 1565 ft 9 kts 104°
2026-04-30 07:25 -33.40164 -70.79895 1564 ft 9 kts 89°
2026-04-30 07:25 -33.40145 -70.79825 1564 ft 9 kts 79°
2026-04-30 07:26 -33.40142 -70.79753 1564 ft 9 kts 88°
2026-04-30 07:26 -33.40139 -70.79683 1563 ft 8 kts 87°
2026-04-30 07:26 -33.40135 -70.79629 1563 ft 5 kts 72°
2026-04-30 07:26 -33.40105 -70.79609 1563 ft 5 kts 359°
2026-04-30 07:27 -33.40077 -70.79610 1563 ft 2 kts 358°
2026-04-30 07:27 -33.40065 -70.79611 1563 ft 2 kts 358°
2026-04-30 07:27 -33.40063 -70.79611 1563 ft 0 kts 358°
2026-04-30 07:28 -33.40062 -70.79611 1563 ft 0 kts 358°